www.pogodaiklimat.ru

Погода и климат >> Архив погоды >> Китай >> Внутренняя Монголия >> Дун-Уджимчин-Ци


ПОГОДА в Дун-Уджимчин-Ци

  • Прогноз погоды в Дун-Уджимчин-Ци
  • Монитор погоды в Дун-Уджимчин-Ци

АРХИВ ПОГОДЫ в Дун-Уджимчин-Ци

Время (UTC), дата Ветер
(напр.,м/с)
 
Видим.   Явления Облачность Т
(С)
Тd
(С)
f
(%)
Тe
(С)
Тes
(С)
Комфортность P
(гПа)
Po
(гПа)
Тmin
(С)
Tmax
(С)
R
(мм)
R24
(мм)
S
(см)
00 18.08 Ю 1 30 км 3/3
[]
+15.4 +12.0 80 +16 +20 1007.9 913.3
03 18.08 ЮЗ 2 30 км 4/4 600 м
[]
+22.3 +10.1 46 +24 +33 комфорт 1007.4 914.1
06 18.08 СЗ 2 30 км 4/4 600 м
[]
+23.4 +7.1 35 +24 +32 комфорт 1006.2 912.2 +9.7
09 18.08 С 2 30 км 9/9 600 м
[]
+23.4 +6.2 33 +24 +24 комфорт 1006.3 913.5
12 18.08 Ю 1 30 км в посл. час дождь 9/9 600 м
[]
+18.7 +11.3 62 +20 +20 1007.4 913.2 0.0
15 18.08 В 3 25 км н/о +17.7 +11.3 66 +18 +18 1007.6 912.9
18 18.08 штиль 0 30 км н/о +16.2 +12.0 76 +16 +16 1008.2 914.7 +24.5
21 18.08 С 1 30 км н/о +11.9 +10.3 90 +12 +12 1009.2 912.5
00 19.08 Ю 1 30 км 3/3
[]
+17.2 +12.3 73 +18 +22 1010.0 915.8
03 19.08 В 5 30 км 1/1
[]
+22.7 +11.4 49 +25 +32 комфорт 1009.1 915.8
06 19.08 ЮВ 4 30 км 3/3
[]
+26.0 +9.8 36 +27 +33 жарко 1006.9 913.9 +11.4
09 19.08 Ю 4 30 км 9/9 600 м
[]
+26.5 +10.2 36 +27 +27 жарко 1006.2 914.3
12 19.08 ЮВ 3 30 км 8/8 600 м
[]
+23.6 +13.5 53 +26 +26 жарко 1005.6 912.5
15 19.08 ЮВ 3 30 км слаб. дождь н/о +21.6 +15.0 66 +25 +25 комфорт 1004.8 911.6
18 19.08 В 1 30 км слаб. дождь ?/? +20.5 +14.6 69 +24 +24 комфорт 1004.4 912.3 +27.0
21 19.08 С 2 29 км слаб. дождь н/о +17.4 +14.9 85 +18 +18 1004.1 909.6
00 20.08 Ю 1 30 км в посл. час дождь 9/9 1000 м
[]
+17.5 +15.0 85 +19 +19 1002.7 910.0 0.2
03 20.08 З 1 24 км в посл. час дождь 9/9 1000 м
[]
+18.5 +15.6 83 +20 +22 1001.6 907.7
06 20.08 З 4 15 км в посл. час дождь 6/6 1000 м
[]
+18.1 +14.4 79 +18 +22 1001.1 908.1 +15.2 2
09 20.08 ЮЗ 3 9000 м в посл. час дождь 9/9 1000 м
[]
+18.4 +15.8 85 +19 +19 1001.2 907.3
12 20.08 З 5 30 км {дождь} 8/8 1000 м
[]
+15.5 +12.3 81 +14 +14 1003.5 909.5 3
15 20.08 З 6 30 км н/о +13.7 +11.4 86 +12 +12 1004.8 909.1
18 20.08 З 4 20 км в посл. час дождь ?/? +13.7 +11.4 86 +12 +12 1005.8 911.4 +22.0 1
21 20.08 З 4 28 км н/о +12.8 +9.1 78 +11 +11 1007.8 911.5
00 21.08 З 8 30 км ясно +14.3 +8.5 68 +12 +13 1009.2 914.1 1
03 21.08 З 9 30 км 4/4 600 м
[]
+17.8 +8.9 56 +17 +18 1008.4 913.7
06 21.08 З 10 30 км 5/5 600 м
[]
+20.2 +5.8 39 +20 +21 1007.7 913.4 +12.3
09 21.08 З 9 30 км 4/4 600 м
[]
+20.8 +6.7 40 +21 +22 комфорт 1008.2 914.4
12 21.08 З 3 30 км 3/3 600 м
[]
+16.8 +7.7 55 +17 +17 1009.5 914.6
15 21.08 З 2 30 км н/о +13.8 +8.8 72 +13 +13 1010.0 913.8
18 21.08 З 5 30 км н/о +12.5 +8.4 76 +10 +10 1009.6 914.9 +21.3
21 21.08 З 1 30 км н/о +10.6 +7.7 82 +10 +10 1010.7 913.4
00 22.08 С 6 30 км 4/4 1000 м
[]
+14.2 +9.0 71 +12 +13 1012.1 916.9
03 22.08 СЗ 5 30 км 6/6 600 м
[]
+17.1 +8.3 56 +16 +19 1012.0 916.7
06 22.08 СЗ 7 30 км 8/8 600 м
[]
+18.4 +9.5 56 +18 +19 1011.7 916.6 +10.3
09 22.08 С 5 30 км 6/6 600 м
[]
+18.2 +9.6 57 +18 +19 1013.1 918.0
12 22.08 С 4 30 км 6/6 1000 м
[]
+15.6 +10.6 72 +15 +15 1013.7 918.2
15 22.08 СЗ 3 30 км н/о +14.6 +11.6 82 +14 +14 1014.1 917.8
18 22.08 З 3 30 км н/о +14.9 +12.8 87 +14 +14 1014.2 919.2 +19.6
21 22.08 С 2 30 км н/о +14.9 +13.1 89 +15 +15 1014.7 918.5
00 23.08 С 5 30 км 9/9 600 м
[]
+16.5 +13.0 80 +16 +16 1016.1 920.7
03 23.08 С 4 30 км 9/9 600 м
[]
+19.4 +12.7 65 +21 +22 комфорт 1015.6 920.7
06 23.08 С 4 30 км 8/8 600 м
[]
+21.7 +11.1 51 +24 +25 комфорт 1014.0 919.5 +14.2
09 23.08 С 3 30 км 8/8 600 м
[]
+22.2 +11.0 49 +24 +25 комфорт 1013.2 919.4
12 23.08 С 2 30 км 8/8 600 м
[]
+17.9 +12.6 71 +18 +18 1014.7 919.8
15 23.08 С 1 25 км н/о +14.5 +12.0 85 +15 +15 1015.1 918.7
18 23.08 штиль 0 30 км н/о +11.7 +10.3 91 +11 +11 1015.0 919.9 +23.5
21 23.08 СВ 1 30 км н/о +10.0 +8.8 92 +9 +9 1014.9 917.0
00 24.08 Ю 1 19 км 1/1
[]
+16.5 +11.9 74 +17 +22 1014.9 920.0
03 24.08 З 2 30 км 4/4 600 м
[]
+22.3 +9.8 45 +24 +32 комфорт 1014.0 920.1
06 24.08 СВ 2 30 км 8/8 600 м
[]
+24.9 +8.8 36 +25 +28 комфорт 1012.3 918.0 +9.6
09 24.08 С 2 30 км 8/8 600 м
[]
+24.9 +8.8 36 +25 +26 комфорт 1011.7 918.8
12 24.08 штиль 0 30 км в посл. час дождь 8/8 600 м
[]
+21.7 +10.2 48 +23 +23 комфорт 1011.4 917.4
15 24.08 штиль 0 29 км н/о +18.6 +10.9 61 +19 +19 1010.4 915.7
18 24.08 СВ 2 16 км слаб. дождь ?/? +15.8 +14.3 91 +16 +16 1011.0 917.4 +26.0 1
21 24.08 ЮВ 2 9000 м слаб. дождь ?/? +15.5 +14.2 92 +15 +15 1010.9 915.2

 

Местоположение метеостанции Дун-Уджимчин-Ци (Внутренняя Монголия, Китай): широта 45.52 долгота 116.96 высота над уровнем моря 840 м.

В архиве по умолчанию представлена погода в Дун-Уджимчин-Ци за последнюю неделю. Архивные данные за месяц целиком и за предыдущие месяцы, начиная с января 2011 года, Вы можете получить, выбрав интересующий диапазон дат из раскрывающегося списка и нажав кнопку "Ввод!".


*Определитесь, кто Вы:
робот инопланетянин человек

Внимание! Время в таблицах - всемирное. Для получения местного времени необходимо прибавить поправку, которая равна 8 ч.

Смотрите также архив погоды в соседних городах и на ближайших метеорологических станциях:

Погода в Си-Уджимчин-Ци (Внутренняя Монголия, Китай) (116 км)
Погода в Эрдэнэцагаане (Монголия) (131 км)
Погода в Шилин-Хото (Внутренняя Монголия, Китай) (187 км)
Погода в Матаде (Монголия) (210 км)
Погода в Баянчагане (Внутренняя Монголия, Китай) (230 км)
Погода в Линьси (Внутренняя Монголия, Китай) (231 км)
Погода в Нарэнбаулаге (Внутренняя Монголия, Китай) (242 км)
Погода в Байрин-Цзоци (Внутренняя Монголия, Китай) (258 км)
Погода в Халхин-Голе (Монголия) (265 км)
Погода в Аршане (Внутренняя Монголия, Китай) (293 км)

Пояснения к столбцам:

Ветер - указаны скорость ветра в м/с - средняя за 10 мин, порывы в срок и между сроками (в фигурных скобках) и направление, откуда дует ветер: С - северный, СВ - северо-восточный, В - восточный, ЮВ - юго-восточный, Ю - южный, ЮЗ - юго-западный, З - западный, СЗ - северо-западный.
Видимость - горизонтальная дальность видимости в метрах или километрах. При видимости от 1 до 10 км при отсутствии осадков обычно наблюдается дымка, при ухудшении видимости до 1 км и менее - туман. В сухую погоду видимость может ухудшаться дымом, пылью или мглою.
Явления - указаны атмосферные явления, наблюдавшиеся в срок или в последний час перед сроком; фигурными скобками обозначены явления, наблюдавшиеся между сроками (за 1-3 часа до срока); квадратными скобками обозначены град или гололедные отложения с указанием их диаметра в мм.
Облачность - указаны через наклонную черту общая и нижняя облачность в баллах и высота нижней границы облаков в метрах; квадратными скобками обозначены формы облаков: Ci - перистые, Cs - перисто-слоистые, Cc - перисто-кучевые, Ac - высококучевые, As - высокослоистые, Sc - слоисто-кучевые, Ns - слоисто-дождевые, Cu - кучевые, Cb - кучево-дождевые. Подробнее классификацию облаков см. в Атласе облаков (PDF).
T - Температура воздуха - температура, измеренная на высоте 2 м над землей.
Td - Температура точки росы - температура, при понижении до которой содержащийся в воздухе водяной пар достигнет насыщения.
f - Относительная влажность воздуха - влажноcть воздуха, измеренная на высоте 2 м над землей.
Te - Эффективная температура - температура, которую ощущает одетый по сезону человек в тени. Характеристика душности погоды. При расчете учитывается влияние влажности воздуха и скорости ветра на теплоощущения человека.
Tes - Эффективная температура на солнце - температура, которую ощущает человек, с поправкой на солнечный нагрев. Характеристика знойности погоды. Зависит от высоты солнца над горизонтом, облачности и скорости ветра. Ночью, в пасмурную погоду, а также при ветре 12 м/с и более поправка равна нулю.
P - Атмосферное давление - приведенное к уровню моря атмосферное давление.
Po - Атмосферное давление - измеренное на уровне метеостанции атмосферное давление.
Tmin - Минимальная температура - минимум температуры воздуха на высоте 2 м над землей.
Tmax - Максимальная температура - максимум температуры воздуха на высоте 2 м над землей.
R - Количество осадков - Количество выпавших осадков за период времени, мм. При наведении курсора мыши на число - период времени, за который выпало указанное количество осадков.
R24 - Количество осадков - Количество выпавших осадков за 24 часа, мм.
S - Снежный покров - Высота снежного покрова, см. При наведении курсора мыши на число - состояние снежного покрова и степень покрытия местности в баллах.